Wind_Speed
6 6 5 10 8 8 17 17 4 7 7 11 4 6 13 19 11 5 19 15 22 23 24 24 22 21 19 17 15 13 12 9 9 8 7 7 7 8 9 8 8 8 8 8 8 9 10 11 11
4 7 8 15 9 14 13 6 11 21 12 11 11 10 15 13 13 16 15 19 24 24 23 24 21 19 18 16 14 12 11 10 9 7 7 8 9 10 9 9 8 7 7 8 9 10 11 13 14
6 9 14 10 14 15 8 16 18 16 12 9 7 12 7 5 10 6 12 19 21 21 20 20 22 19 17 16 13 12 11 10 9 8 8 9 10 10 9 9 8 9 10 11 12 13 14 15 17
5 9 14 10 18 4 10 19 10 13 11 11 12 7 6 4 4 7 13 20 19 23 22 18 18 18 17 15 13 12 11 10 10 10 10 10 10 10 10 10 10 11 12 13 14 15 16 17 18
10 14 12 14 18 3 6 15 14 11 10 4 6 8 6 8 7 6 14 16 17 21 21 22 18 16 15 14 12 12 11 11 11 11 11 11 10 10 11 11 11 12 13 13 13 13 14 15 16
14 17 13 14 12 4 5 12 11 10 6 7 5 12 5 7 11 12 10 14 18 20 20 21 17 15 15 14 13 12 12 12 11 12 11 11 10 10 10 11 11 11 11 10 10 11 11 12 13
17 11 16 16 8 7 12 9 17 11 11 5 7 5 2 11 15 18 9 13 16 22 20 20 18 15 14 13 13 13 13 12 12 11 12 10 10 9 8 8 8 7 6 6 6 6 7 8 10
20 12 20 10 11 6 8 5 6 6 13 3 5 4 5 11 14 16 20 22 18 19 18 17 16 14 13 14 14 14 13 13 13 12 11 9 8 7 6 4 4 3 3 4 5 6 8 10 11
14 11 14 7 14 11 18 10 6 4 7 5 4 3 8 16 19 21 18 17 16 17 16 15 13 12 12 11 14 14 13 13 12 10 9 9 3 5 1 1 0 2 4 6 7 8 9 11 14
13 12 16 15 8 2 16 5 11 10 12 6 2 5 16 18 18 18 18 16 16 17 15 14 16 15 15 12 15 12 13 10 7 5 6 6 4 6 6 4 4 5 7 8 9 10 10 9 8
15 15 4 3 13 34 3 11 13 14 14 20 18 14 17 18 15 14 16 16 17 16 12 12 13 14 13 10 11 10 10 8 6 7 5 6 2 2 3 6 5 5 8 5 7 9 7 12 13
15 17 5 7 5 14 13 14 8 9 25 9 11 17 21 19 18 18 18 18 16 14 13 12 12 14 12 12 10 10 8 7 6 7 3 2 1 5 3 3 4 5 6 8 8 8 12 13 14
15 4 3 1 8 9 11 7 5 2 7 4 16 20 20 18 19 19 18 16 15 14 15 14 13 13 14 11 10 9 6 9 6 4 6 6 4 6 3 5 3 4 5 6 8 10 12 15 16
12 14 3 6 11 18 8 4 4 8 7 12 19 20 19 20 21 20 18 16 16 16 15 15 13 12 11 9 10 8 7 2 5 5 8 10 10 11 5 2 2 3 6 8 10 14 15 16 16
4 7 9 7 12 7 12 3 17 5 11 16 19 20 20 22 21 19 17 17 17 16 16 16 15 14 12 10 10 7 3 3 5 5 11 12 15 15 8 10 9 9 10 12 11 14 14 16 16
8 6 12 7 13 7 15 12 7 11 13 17 19 19 20 21 20 18 16 16 16 16 17 17 17 17 15 12 10 9 7 5 9 10 11 8 4 5 7 7 7 10 13 10 13 13 15 17 18
10 8 11 11 13 11 12 15 11 15 14 18 19 20 21 20 19 17 15 15 16 17 19 17 18 18 16 13 14 9 6 9 21 10 3 2 4 5 3 5 8 11 7 10 12 14 15 17 19
13 14 14 11 11 10 10 9 10 17 16 16 17 18 18 20 20 16 14 14 16 17 20 18 18 20 20 18 11 14 18 15 13 8 4 3 5 4 1 6 10 11 10 10 12 13 15 16 19
4 7 11 14 11 13 12 10 13 16 16 18 18 19 20 20 18 15 14 14 16 18 19 20 21 15 21 17 13 13 12 11 10 7 4 4 3 2 3 2 7 10 9 12 13 14 17 18 19
6 6 7 10 11 9 10 12 12 15 19 19 19 20 21 20 16 14 14 15 17 20 19 19 17 11 16 10 9 9 10 8 7 6 7 6 5 3 4 8 7 9 12 13 14 17 18 19 19
7 2 8 7 11 14 9 14 15 12 14 14 19 20 20 21 18 16 16 16 17 19 19 19 15 13 13 13 13 12 11 10 8 8 5 7 5 3 5 8 11 11 13 14 16 17 19 22 22
10 2 1 4 12 13 17 13 19 18 16 15 17 17 19 18 18 17 16 17 18 20 18 17 18 15 15 16 12 12 8 7 7 8 8 6 8 5 7 10 11 13 15 17 18 19 22 22 23
8 3 4 6 12 7 13 8 18 15 15 15 17 19 19 19 18 18 17 16 19 20 19 17 17 18 17 14 12 10 7 5 5 6 8 6 8 9 11 12 14 15 18 20 22 23 24 23 23
4 4 6 7 10 8 15 13 5 12 14 17 14 16 18 18 18 18 20 23 22 20 18 18 19 17 15 13 10 8 7 6 6 6 7 8 9 12 13 15 16 19 20 21 23 24 24 26 21
8 9 8 5 4 8 4 5 12 7 4 5 14 18 19 20 20 22 24 23 21 20 18 18 17 16 14 12 10 8 7 6 4 7 7 9 11 12 13 15 17 18 20 21 22 24 24 25 22
9 11 5 6 7 7 8 7 3 9 2 4 14 18 20 20 20 22 23 21 19 18 17 16 16 15 14 13 11 9 7 4 6 7 7 9 10 11 13 16 18 20 22 23 23 23 23 23 21
6 7 5 4 1 5 10 9 9 5 6 7 15 19 21 21 21 23 22 20 19 18 17 17 17 15 15 13 11 6 8 6 7 7 6 7 9 11 14 16 19 21 21 21 20 21 22 21 20
8 3 3 4 3 7 4 6 5 7 7 8 14 19 21 21 22 23 22 20 19 18 17 18 18 17 15 12 7 6 8 7 5 5 7 7 9 12 15 17 18 19 19 19 18 18 19 20 21
7 8 6 4 3 4 4 2 8 3 6 9 13 18 20 22 23 22 21 20 20 18 18 18 18 18 14 9 4 8 8 7 5 5 7 8 11 14 16 17 17 17 17 17 19 16 17 16 14
10 8 9 5 6 4 4 5 4 5 3 7 12 17 20 22 23 22 22 21 21 20 19 20 20 16 11 6 9 6 9 7 7 8 9 10 13 15 16 16 16 16 16 14 13 14 16 13 12
Wind_Direction
247 282 262 242 243 232 260 267 114 148 133 30 44 28 63 36 6 89 129 154 148 149 155 154 154 155 151 148 150 150 148 141 138 139 139 127 119 108 103 99 93 86 77 67 57 51 48 44 38
227 247 231 258 245 256 247 54 95 86 103 84 49 57 43 65 64 109 139 144 150 152 153 155 154 157 148 149 149 152 144 145 147 145 135 129 125 117 111 106 98 88 78 70 63 55 49 44 41
225 229 253 225 234 259 352 56 100 109 108 107 93 53 34 47 77 102 159 148 151 148 150 162 153 154 146 149 150 148 149 148 146 143 138 135 127 124 118 110 97 84 76 75 69 63 58 55 54
224 217 250 256 257 246 315 108 99 123 108 102 112 60 77 87 59 116 148 154 156 151 164 152 157 148 147 150 150 148 149 148 147 147 145 139 135 126 115 103 95 91 86 80 77 74 69 64 61
223 249 242 226 250 35 277 135 151 147 110 137 69 112 118 155 83 149 159 162 164 159 156 156 154 145 148 150 151 150 149 148 150 152 145 137 129 120 114 106 104 100 94 88 81 71 62 55 50
229 243 246 247 216 115 183 176 174 120 117 123 93 155 164 200 182 169 168 169 165 141 156 146 146 152 154 151 149 153 150 151 155 147 139 131 125 122 116 115 109 102 96 86 75 65 55 47 41
245 228 252 274 85 238 111 260 142 121 113 111 112 62 158 173 181 171 151 178 181 148 146 141 147 155 152 148 152 151 153 151 145 139 134 126 125 122 118 113 110 99 87 71 52 46 35 27 22
244 270 258 262 204 160 127 132 138 125 78 113 104 160 207 166 163 162 162 157 159 144 131 131 148 153 152 155 156 154 154 148 144 141 135 124 121 115 114 105 115 91 36 15 360 360 1 358 352
235 261 253 147 251 202 130 155 142 173 206 137 61 322 143 159 150 149 153 155 142 128 129 138 140 145 151 154 154 155 152 149 144 139 129 94 82 78 358 72 312 323 326 329 328 332 342 359 357
229 234 260 130 121 83 169 167 153 167 135 128 130 135 147 152 154 153 154 145 138 139 139 145 150 154 146 148 153 154 149 134 125 143 133 96 154 190 196 302 287 293 305 321 325 327 352 359 339
219 258 320 256 158 178 102 191 178 203 181 186 186 157 157 153 158 161 154 153 150 150 146 147 154 154 133 151 139 144 149 165 168 168 145 222 175 293 4 303 332 325 322 335 327 324 321 328 333
242 235 308 320 208 118 215 193 216 72 277 52 152 162 159 160 164 164 162 158 156 152 150 149 146 143 143 145 140 155 157 163 171 188 175 247 292 282 227 257 279 319 309 316 321 319 331 329 327
224 207 323 81 210 179 211 179 211 244 41 136 127 153 160 165 167 163 160 158 156 154 153 149 145 149 145 135 153 155 157 191 196 189 215 202 196 257 259 263 272 295 321 317 326 318 321 320 318
197 245 204 225 181 203 244 182 185 116 98 117 142 152 159 164 164 160 160 156 155 153 146 142 140 139 131 148 155 159 172 177 235 272 270 257 267 261 245 266 274 303 295 303 316 310 319 315 315
226 179 185 229 205 207 230 170 136 146 133 135 145 153 161 165 164 161 159 158 157 154 150 146 140 141 150 130 159 176 143 325 277 294 304 265 251 245 211 225 251 286 307 316 321 321 318 321 315
194 185 170 200 182 192 216 160 151 152 147 149 152 158 165 166 166 164 167 166 164 163 159 156 157 164 174 182 190 176 129 10 334 284 282 277 230 222 229 253 282 306 315 320 325 330 327 319 315
205 183 203 181 205 161 208 146 145 169 175 157 163 167 170 167 173 172 178 178 177 173 170 170 183 191 191 193 204 197 327 273 284 273 237 202 214 219 248 269 293 333 334 331 332 328 324 318 315
181 235 191 183 173 188 204 109 151 177 184 174 168 168 174 176 180 178 182 183 185 179 195 174 185 205 215 224 222 275 250 214 243 229 224 224 217 239 29 317 320 334 331 326 321 326 322 319 317
273 208 201 145 157 202 208 149 170 184 195 184 185 182 183 182 182 186 184 181 181 177 193 180 195 207 217 218 254 155 185 222 208 225 219 210 203 246 282 314 325 327 330 324 321 319 322 320 316
252 208 137 124 177 239 192 179 170 186 205 197 198 194 194 190 181 189 186 182 184 184 190 191 195 209 197 219 196 202 186 180 181 197 197 188 211 240 311 319 328 318 320 316 314 316 315 311 315
238 197 286 184 183 224 194 195 183 189 205 209 206 204 199 197 197 191 188 183 179 186 186 183 187 181 177 170 159 162 166 178 181 197 206 211 235 276 316 323 316 315 316 308 307 309 309 306 307
216 24 181 160 194 211 204 235 181 177 186 196 206 214 203 195 197 193 188 182 182 179 178 175 176 174 173 163 170 173 184 206 216 214 225 239 267 288 297 302 305 309 310 307 305 302 300 299 298
101 168 247 246 257 212 202 253 198 192 193 189 192 201 202 198 191 185 180 180 168 165 167 170 175 174 174 171 181 187 208 215 218 221 227 255 276 291 298 300 300 307 306 300 297 297 297 290 287
129 203 222 243 257 264 262 254 220 192 218 175 178 194 189 181 177 170 165 159 159 162 165 170 173 178 182 183 186 201 197 211 220 229 241 267 276 291 294 297 297 300 301 299 296 294 292 287 281
228 246 255 212 247 245 60 288 257 109 86 158 175 186 178 173 170 166 164 164 165 166 168 171 175 180 180 183 185 188 188 194 221 248 266 278 291 295 298 296 301 301 301 300 297 294 288 288 279
210 298 268 290 293 275 132 249 116 77 98 187 174 179 175 177 176 174 173 173 174 175 173 174 179 181 185 181 181 174 170 220 248 259 269 289 290 296 295 303 302 302 301 298 295 292 290 286 281
153 243 5 309 87 273 264 242 152 139 146 173 172 176 181 184 183 181 182 184 184 183 184 186 184 186 186 181 177 247 280 214 233 256 273 282 296 296 299 301 303 304 303 300 296 293 289 286 290
279 58 215 220 260 258 234 249 90 155 171 182 180 185 188 191 188 188 190 190 190 191 190 186 187 187 183 181 234 205 210 227 225 253 274 290 293 298 304 307 307 308 309 307 298 289 284 288 288
173 229 233 307 284 287 299 86 76 81 166 187 196 192 195 196 195 195 197 197 196 194 190 187 186 183 185 192 247 241 244 221 238 269 279 289 294 304 307 308 309 311 310 295 289 289 295 297 293
293 266 222 233 233 224 305 297 153 133 151 189 199 200 202 204 203 203 204 200 200 198 194 192 186 182 181 230 284 223 220 241 263 271 280 288 301 306 307 308 307 301 298 302 297 289 284 289 298
Height
1514 1515 1516 1516 1512 1493 1483 1466 1460 1481 1489 1497 1496 1493 1492 1500 1502 1508 1518 1521 1524 1529 1531 1534 1537 1539 1542 1545 1549 1551 1553 1556 1557 1558 1559 1560 1560 1559 1559 1560 1560 1561 1561 1561 1561 1561 1559 1558 1557
1516 1517 1515 1507 1503 1489 1469 1460 1472 1493 1507 1505 1506 1500 1502 1508 1511 1516 1522 1523 1526 1529 1533 1534 1537 1542 1543 1547 1549 1553 1554 1556 1558 1560 1561 1561 1561 1561 1561 1561 1561 1562 1561 1561 1562 1561 1561 1560 1559
1512 1515 1512 1498 1491 1485 1475 1471 1486 1497 1501 1505 1507 1508 1511 1517 1518 1520 1524 1524 1527 1531 1535 1536 1538 1543 1545 1548 1551 1553 1555 1557 1559 1561 1562 1563 1563 1563 1563 1563 1563 1564 1564 1564 1564 1562 1563 1562 1561
1514 1514 1509 1497 1485 1470 1476 1490 1498 1496 1501 1508 1508 1512 1520 1520 1520 1521 1527 1527 1530 1532 1533 1537 1543 1543 1545 1548 1552 1554 1556 1559 1561 1562 1564 1564 1565 1565 1565 1565 1565 1566 1567 1566 1566 1565 1565 1564 1562
1513 1505 1495 1488 1479 1474 1481 1486 1490 1499 1500 1506 1505 1513 1519 1519 1519 1522 1528 1530 1531 1533 1533 1539 1544 1545 1549 1550 1553 1554 1557 1560 1563 1564 1565 1566 1567 1567 1566 1566 1568 1568 1568 1568 1567 1567 1566 1566 1565
1507 1500 1491 1483 1472 1478 1483 1490 1489 1497 1496 1504 1506 1506 1518 1518 1521 1524 1528 1530 1529 1529 1536 1542 1545 1548 1550 1552 1553 1557 1559 1561 1564 1565 1566 1567 1568 1569 1569 1569 1570 1570 1569 1569 1570 1569 1568 1568 1567
1502 1491 1486 1474 1475 1484 1483 1490 1492 1489 1497 1504 1507 1512 1519 1521 1523 1525 1529 1529 1518 1533 1537 1541 1546 1551 1552 1553 1556 1558 1560 1563 1565 1567 1568 1569 1570 1571 1572 1572 1571 1571 1573 1571 1572 1570 1570 1569 1568
1498 1489 1481 1475 1488 1484 1485 1488 1496 1494 1500 1507 1508 1510 1516 1520 1521 1524 1528 1530 1533 1535 1540 1544 1547 1553 1553 1555 1556 1558 1561 1565 1567 1568 1570 1571 1572 1573 1573 1573 1572 1572 1574 1572 1573 1572 1570 1569 1568
1499 1491 1480 1484 1492 1490 1490 1496 1499 1502 1503 1508 1509 1512 1514 1520 1522 1526 1530 1533 1536 1538 1544 1549 1552 1556 1558 1558 1558 1560 1564 1568 1567 1570 1572 1574 1575 1575 1575 1573 1574 1574 1575 1574 1574 1572 1571 1570 1568
1496 1489 1475 1478 1495 1514 1499 1500 1497 1500 1501 1505 1509 1514 1517 1520 1523 1526 1530 1533 1538 1542 1546 1549 1552 1557 1558 1559 1560 1564 1566 1569 1571 1572 1574 1575 1577 1577 1576 1575 1576 1575 1575 1575 1574 1573 1571 1571 1570
1493 1486 1477 1480 1486 1501 1494 1495 1496 1493 1494 1495 1505 1512 1516 1521 1524 1528 1531 1536 1541 1544 1547 1550 1552 1554 1557 1560 1564 1566 1568 1571 1573 1573 1575 1576 1577 1577 1577 1578 1577 1577 1576 1576 1575 1574 1572 1568 1567
1489 1485 1484 1482 1486 1492 1496 1491 1489 1494 1508 1493 1499 1511 1516 1522 1525 1529 1533 1538 1541 1545 1549 1552 1553 1556 1560 1562 1566 1568 1570 1572 1574 1575 1574 1576 1578 1577 1577 1579 1578 1576 1577 1574 1574 1573 1569 1568 1566
1488 1484 1488 1491 1489 1492 1496 1491 1489 1496 1500 1499 1502 1512 1517 1523 1528 1531 1535 1539 1542 1547 1551 1553 1553 1557 1559 1562 1566 1569 1570 1572 1571 1572 1572 1575 1576 1577 1577 1576 1577 1576 1575 1574 1572 1571 1568 1566 1565
1487 1487 1491 1491 1493 1492 1490 1490 1493 1497 1501 1503 1508 1514 1520 1524 1528 1532 1536 1540 1544 1547 1550 1552 1556 1558 1561 1564 1565 1567 1570 1570 1570 1571 1573 1573 1573 1573 1576 1575 1574 1573 1571 1570 1569 1567 1566 1564 1562
1490 1491 1492 1495 1491 1493 1492 1495 1505 1503 1503 1508 1512 1516 1521 1525 1529 1533 1536 1541 1544 1548 1550 1553 1555 1558 1559 1561 1562 1564 1566 1568 1569 1569 1569 1571 1571 1571 1571 1570 1570 1569 1569 1568 1567 1565 1565 1561 1559
1489 1490 1496 1489 1490 1490 1491 1497 1499 1503 1505 1508 1512 1517 1522 1525 1529 1533 1537 1541 1544 1547 1548 1550 1552 1553 1555 1557 1560 1565 1564 1565 1567 1567 1566 1568 1568 1568 1569 1567 1568 1568 1567 1566 1564 1563 1560 1558 1556
1487 1490 1489 1489 1485 1488 1489 1493 1499 1503 1504 1507 1512 1516 1520 1524 1529 1533 1537 1540 1543 1545 1546 1547 1549 1550 1553 1555 1555 1557 1564 1566 1567 1567 1566 1565 1568 1568 1567 1567 1566 1566 1566 1564 1561 1559 1559 1555 1554
1490 1486 1480 1484 1487 1487 1491 1491 1496 1501 1503 1506 1512 1517 1521 1524 1528 1533 1537 1540 1542 1545 1544 1547 1547 1548 1551 1553 1557 1556 1556 1560 1566 1565 1565 1564 1566 1567 1568 1566 1564 1565 1563 1562 1559 1557 1556 1552 1550
1475 1476 1477 1475 1484 1488 1488 1490 1497 1500 1503 1505 1509 1514 1518 1523 1528 1532 1535 1538 1541 1542 1543 1545 1545 1547 1550 1553 1555 1554 1557 1561 1563 1564 1563 1565 1566 1566 1566 1566 1563 1562 1562 1559 1558 1556 1552 1549 1548
1476 1477 1480 1479 1485 1487 1485 1487 1493 1497 1499 1500 1506 1510 1516 1520 1526 1530 1533 1536 1538 1540 1541 1543 1544 1546 1550 1551 1553 1555 1557 1560 1563 1562 1563 1564 1564 1564 1563 1561 1562 1560 1559 1558 1556 1552 1550 1548 1546
1479 1481 1489 1481 1486 1485 1481 1483 1489 1494 1495 1498 1503 1507 1512 1517 1523 1527 1530 1532 1534 1537 1540 1542 1544 1547 1550 1552 1555 1558 1560 1561 1562 1562 1562 1563 1562 1562 1561 1559 1559 1558 1557 1555 1553 1551 1548 1545 1543
1487 1479 1480 1482 1486 1489 1476 1485 1477 1485 1492 1499 1503 1505 1508 1514 1519 1524 1527 1529 1532 1535 1539 1542 1545 1548 1551 1553 1555 1557 1559 1559 1561 1561 1563 1562 1560 1560 1559 1558 1557 1556 1554 1552 1550 1547 1545 1542 1537
1489 1483 1481 1479 1478 1478 1477 1483 1476 1478 1485 1490 1496 1503 1508 1512 1517 1520 1523 1528 1531 1534 1538 1541 1544 1547 1549 1551 1554 1555 1556 1557 1558 1559 1559 1560 1559 1558 1557 1556 1554 1552 1550 1547 1545 1542 1538 1537 1533
1486 1486 1484 1482 1480 1494 1477 1479 1470 1471 1473 1478 1493 1501 1505 1510 1515 1518 1522 1527 1530 1533 1537 1540 1543 1545 1547 1549 1551 1553 1554 1556 1557 1556 1557 1557 1557 1556 1555 1553 1550 1547 1544 1542 1539 1536 1533 1530 1527
1486 1486 1497 1501 1497 1500 1479 1485 1475 1470 1479 1478 1489 1498 1504 1510 1514 1517 1521 1525 1529 1532 1535 1538 1541 1544 1546 1547 1549 1551 1552 1553 1554 1555 1554 1554 1553 1551 1550 1547 1544 1541 1538 1535 1532 1530 1527 1524 1521
1484 1482 1494 1511 1504 1492 1480 1488 1472 1474 1482 1485 1490 1497 1504 1509 1513 1516 1520 1524 1528 1530 1533 1536 1539 1542 1544 1546 1547 1548 1548 1549 1550 1551 1550 1550 1548 1546 1544 1542 1539 1536 1533 1530 1527 1524 1521 1518 1515
1485 1492 1485 1495 1506 1509 1487 1466 1472 1478 1483 1485 1489 1496 1502 1507 1511 1515 1519 1522 1526 1529 1532 1534 1537 1539 1542 1543 1543 1543 1543 1544 1545 1545 1545 1545 1542 1541 1540 1536 1533 1530 1527 1523 1521 1518 1516 1513 1511
1489 1485 1497 1495 1515 1509 1474 1473 1465 1479 1481 1484 1488 1494 1500 1505 1509 1513 1517 1521 1524 1527 1529 1532 1534 1536 1538 1539 1539 1540 1540 1541 1541 1541 1541 1539 1538 1536 1534 1531 1528 1524 1521 1518 1516 1513 1510 1508 1506
1488 1490 1490 1488 1492 1505 1500 1475 1469 1475 1478 1483 1486 1491 1497 1501 1506 1510 1515 1518 1522 1524 1527 1529 1532 1533 1534 1534 1535 1537 1539 1537 1537 1536 1536 1535 1534 1532 1529 1525 1522 1519 1517 1512 1509 1508 1506 1504 1503
1480 1479 1481 1499 1499 1498 1502 1490 1474 1477 1479 1482 1485 1488 1493 1497 1501 1506 1511 1515 1518 1521 1524 1526 1528 1528 1528 1529 1529 1530 1535 1535 1534 1533 1533 1532 1529 1526 1523 1520 1518 1515 1511 1508 1506 1504 1501 1500 1498